National Network of Regional Coastal Monitoring Programmes

« Return to map for other wave, tide and met stations.

Note that these are real-time data and are not quality-controlled. Long-range graphs are plotted from a randomised subsample of half-hourly data.

Arun Platform

Latest Met Data

Time (GMT)Air Pressure (mb)Wind Speed (knots)Wind Speed (ms-1)Gust Speed (knots)Gust Speed (ms-1)Wind direction (°)Air Temperature (°C)Rainfall (mm)Erythemal Radiation (W/m2)UV IndexRelative Humidity (%)
29-09-2022 13:5010035.82.912.86.4320140--64
Time (GMT)Air Pressure (mb)Wind Speed (knots)Wind Speed (ms-1)Gust Speed (knots)Gust Speed (ms-1)Wind direction (°)Air Temperature (°C)Rainfall (mm)Erythemal Radiation (W/m2)UV IndexRelative Humidity (%)
15-08-2022 00:001003-----19.70--85
14-08-2022 23:501003-----19.70--84.8
14-08-2022 23:401003-----19.70--84.5
14-08-2022 23:301003-----19.70--84.8
14-08-2022 23:201003-----19.90--84.4
14-08-2022 23:101003-----19.90.02--84.4
14-08-2022 23:001003-----200.06--84.1
14-08-2022 22:501003-----200--83.5
14-08-2022 22:401003-----19.90--82.7
14-08-2022 22:301003-----19.90.03--82.5
14-08-2022 22:201003-----19.70--82.7
14-08-2022 22:101003-----19.70--82.8
14-08-2022 22:001003-----19.80--82.8
14-08-2022 21:501003-----200--83.1
14-08-2022 21:401003-----20.10--82.5
14-08-2022 21:301004-----20.20--82.8
14-08-2022 21:201004-----20.20--83.4
14-08-2022 21:101004-----20.20--83.3
14-08-2022 21:001004-----20.20--82.8
14-08-2022 20:501004-----20.30--82.1
14-08-2022 20:401004-----20.30--81.1
14-08-2022 20:301004-----20.40--79.1
14-08-2022 20:201004-----20.40--77.1
14-08-2022 20:101004-----20.70--75.1
14-08-2022 20:001004-----20.80--74.5
14-08-2022 19:501004-----20.60--76.9
14-08-2022 19:401004-----20.50--77.8
14-08-2022 19:301004-----20.30--78.2
14-08-2022 19:201004-----20.30--77.9
14-08-2022 19:101004-----20.40.02--75.8
14-08-2022 19:001004-----20.50.03--73.2
14-08-2022 18:501004-----20.80--72.9
14-08-2022 18:401004-----20.80--70.5
14-08-2022 18:301004-----20.70.02--69.4
14-08-2022 18:201004-----20.70--68.9
14-08-2022 18:101004-----20.80--68.5
14-08-2022 18:001004-----210--68.4
14-08-2022 17:501004-----21.10--67.6
14-08-2022 17:401004-----210--69.5
14-08-2022 17:301004-----20.90.19--72
14-08-2022 17:201004-----21.50--71.8
14-08-2022 17:101004-----21.60--68.6
14-08-2022 17:001004-----22.10--68.5
14-08-2022 16:501004-----21.90--68.4
14-08-2022 16:401004-----21.80.19--69.4
14-08-2022 16:301004-----220--70.3
14-08-2022 16:201004-----21.90--68.8
14-08-2022 16:101004-----21.90--68.9
14-08-2022 16:001004-----21.80--68
14-08-2022 15:501004-----21.90--68.1
14-08-2022 15:401004-----21.90--67.1
14-08-2022 15:301004-----21.90--67
14-08-2022 15:201004-----21.90--66.7
14-08-2022 15:101004-----21.90--66.6
14-08-2022 15:001004-----21.90--65.8
14-08-2022 14:501004-----21.90--65.6
14-08-2022 14:401004-----21.80--66.7
14-08-2022 14:301004-----21.60--67.9
14-08-2022 14:201004-----21.50--69.2
14-08-2022 14:101004-----21.30--69.2
14-08-2022 14:001004-----21.30--69.7
14-08-2022 13:501005-----21.60--68.8
14-08-2022 13:401005-----21.70--67.1
14-08-2022 13:301005-----220--66.9
14-08-2022 13:201005-----22.10--66.8
14-08-2022 13:101005-----22.20--65.5
14-08-2022 13:001005-----22.40--64.1
14-08-2022 12:501005-----22.50.01--63.9
14-08-2022 12:401005-----22.50--65.6
14-08-2022 12:301005-----22.30--63.3
14-08-2022 12:201005-----22.20.01--62.6
14-08-2022 12:101005-----220--63.4
14-08-2022 12:001005-----21.80--64.4
14-08-2022 11:501005-----21.90--62.8
14-08-2022 11:401005-----21.90.02--63.6
14-08-2022 11:301005-----220.02--62.9
14-08-2022 11:201005-----22.30--60.9
14-08-2022 11:101005-----22.30.03--59.4
14-08-2022 11:001006-----220.02--61.7
14-08-2022 10:501006-----22.60--61.6
14-08-2022 10:401006-----23.30.02--58.1
14-08-2022 10:301006-----23.40.15--53.1
14-08-2022 10:201006-----24.30.09--48.4
14-08-2022 10:101006-----240--48.5
14-08-2022 10:001006-----23.80--49.7
14-08-2022 09:501006-----240--47.6
14-08-2022 09:401006-----24.50--43.4
14-08-2022 09:301006-----250--40.6
14-08-2022 09:201006-----25.10.06--40.2
14-08-2022 09:101006-----25.10--39.4
14-08-2022 09:001006-----250--39.7
14-08-2022 08:501006-----24.30--48.7
14-08-2022 08:401006-----23.80--47
14-08-2022 08:301006-----23.20--50.2
14-08-2022 08:201006-----22.90--50.8
14-08-2022 08:101006-----22.60--52.1
14-08-2022 08:001006-----22.90--54.3
14-08-2022 07:501006-----23.50--48.5
14-08-2022 07:401006-----23.30--48.5
14-08-2022 07:301007-----22.80--50.8
14-08-2022 07:201007-----22.20--56.2
14-08-2022 07:101007-----21.70--57.8
14-08-2022 07:001007-----21.60--59.6
14-08-2022 06:501007-----21.20--59.5
14-08-2022 06:401007-----21.10--57.8
14-08-2022 06:301007-----20.80--58.4
14-08-2022 06:201007-----20.40--60.4
14-08-2022 06:101007-----20.20--59.8
14-08-2022 06:001007-----200--60
14-08-2022 05:501007-----19.90--59
14-08-2022 05:401007-----19.90.13--59.9
14-08-2022 05:301007-----19.70.03--60
14-08-2022 05:201007-----19.80.01--60.7
14-08-2022 05:101007-----19.80--59.7
14-08-2022 05:001007-----19.70.06--58.8
14-08-2022 04:501007-----200--60.6
14-08-2022 04:401007-----200--59.7
14-08-2022 04:301007-----200--60.8
14-08-2022 04:201007-----20.20--62.4
14-08-2022 04:101007-----20.60--58
14-08-2022 04:001007-----210--54.9
14-08-2022 03:501007-----20.90--56.2
14-08-2022 03:401007-----20.90--56.4
14-08-2022 03:301007-----20.70--56.3
14-08-2022 03:201008-----20.60--59.5
14-08-2022 03:101008-----20.70--60.8
14-08-2022 03:001008-----21.20--59.7
14-08-2022 02:501008-----21.40--55.9
14-08-2022 02:401008-----21.70--51.1
14-08-2022 02:301008-----21.90--54.2
14-08-2022 02:201008-----22.10--53.3
14-08-2022 02:101008-----22.10--52.6
14-08-2022 02:001008-----22.20.14--51.5
14-08-2022 01:501008-----22.20.01--50.2
14-08-2022 01:401008-----22.20--51.1
14-08-2022 01:301008-----22.30.05--52.1
14-08-2022 01:201008-----22.40--49.8
14-08-2022 01:101008-----22.50--54
14-08-2022 01:001008-----22.60--53.4
14-08-2022 00:501009-----22.80.07--51.4
14-08-2022 00:401009-----230.04--48.7
14-08-2022 00:301009-----23.20--46.2
14-08-2022 00:201009-----230.06--48.5
14-08-2022 00:101009-----230--52.5
14-08-2022 00:001009-----23.60--51.5